Regional Weather Roundup
Issued by NWS

Home | Current Version | Previous Version | Graphics & Text | Print | Product List | Glossary On
Versions: 1 2 3 4 5 6 7 8 9 10 11 12 13 14 15 16 17 18 19 20 21 22 23 24 25 26 27 28 29 30 31 32 33 34 35 36 37 38 39 40 41 42 43 44 45 46 47 48 49 50
000
ASUS43 KMPX 110801
RWRMN
WEATHER ROUNDUP FOR MINNESOTA
NATIONAL WEATHER SERVICE TWIN CITIES/CHANHASSEN MN
300 AM CDT FRI JUL 11 2014


NOTE: "FAIR" INDICATES FEW OR NO CLOUDS BELOW 12,000 FEET WITH NO
SIGNIFICANT WEATHER AND/OR OBSTRUCTIONS TO VISIBILITY. N/A MEANS
CURRENT SKY AND/OR WEATHER CONDITIONS ARE NOT AVAILABLE.

MNZ060>063-068>070-110900-
   Twin Cities Metro

CITY           SKY/WX    TMP DP  RH WIND       PRES   REMARKS
TWIN CITIES    CLOUDY    73  60  63 S16G23    29.98F
ST PAUL        CLOUDY    72  60  66 S14       29.98F
CRYSTAL        CLOUDY    73  59  61 S14G22    29.95F
BLAINE         CLOUDY    72  64  78 S10       29.97F
LAKEVILLE      CLOUDY    68  61  77 S9        29.99F
EDEN PRAIRIE   CLOUDY    72  60  66 S10G20    29.97F
SOUTH ST PAUL  CLOUDY    73  59  61 S13G22    29.98F
LAKE ELMO      LGT RAIN  68  61  77 S12       30.00F
$$
MNZ001>005-007-008-013>017-022>024-027-028-110900-
   Northwest Minnesota

CITY           SKY/WX    TMP DP  RH WIND       PRES   REMARKS
BEMIDJI        MOCLDY    66  65  96 SE8       29.86F
HALLOCK        MOCLDY    66  63  88 S7        29.77F
ROSEAU         PTCLDY    66  61  82 S5        29.82F
WARROAD        CLEAR     64  61  88 S5        29.83F
THIEF RVR FALL   N/A    N/A N/A N/A MISG        N/A
CROOKSTON      MOCLDY    66  64  94 S6        29.81S
FOSSTON        PTCLDY    66  64  94 SE7       29.83F
DETROIT LAKES  MOCLDY    68  68 100 SE7       29.86F
MOORHEAD       PTCLDY    72  72 100 SE9       29.81F
PARK RAPIDS    CLOUDY    67  66  97 SE9       29.86F
$$
MNZ006-009>011-018-025>026-110900-
   North Central Minnesota

CITY           SKY/WX    TMP DP  RH WIND       PRES   REMARKS
BAUDETTE       CLEAR     65  62  90 CALM      29.86F
FLAG ISLAND    PTCLDY    68  64  88 S5        29.83S
INTL FALLS     MOCLDY    64  61  90 CALM      29.87F
WASKISH        MOCLDY    68  64  88 SE5       29.85F
BIG FORK       CLOUDY    66  64  94 S5        29.91F
LONGVILLE      CLOUDY    66  64  94 S8G16     29.90F
GRAND RAPIDS   CLOUDY    66  63  88 SE9       29.92F
CRANE LAKE     CLOUDY    61  61 100 CALM      29.93F
ORR            LGT RAIN  66  61  82 S6        29.90F
COOK           LGT RAIN  64  63  94 S5        29.93F
$$
MNZ012-019>021-037-110900-
   Northeast Minnesota

CITY           SKY/WX    TMP DP  RH WIND       PRES   REMARKS
DULUTH         LGT RAIN  62  59  90 S6        29.98F
ELY            CLOUDY    66  59  77 S7        29.95F
HIBBING        LGT RAIN  65  62  90 S5        29.94F
EVELETH        CLOUDY    63  61  94 S8        29.97F
DULUTH HARBOR  RAIN      54  52  94 NE5       30.00S
TWO HARBORS    CLOUDY    59  55  88 CALM      29.96F
SILVER BAY     CLOUDY    55  55 100 CALM      29.97F
GRAND MARAIS     N/A     50  47  89 NE3       29.98F
G MARAIS ARPRT MOCLDY    52  46  82 CALM      30.02F
$$
MNZ029>031-032-039>041-046>048-054>057-064-110900-
   West Central Minnesota

CITY           SKY/WX    TMP DP  RH WIND       PRES   REMARKS
FERGUS FALLS   CLOUDY    72  66  83 SW7       29.82F
WHEATON        PTCLDY    72  64  78 S9        29.82F
MORRIS         CLEAR     73  66  78 S13G20    29.82F
ALEXANDRIA     MOCLDY    72  65  78 S20G29    29.86F
GLENWOOD       MOCLDY    72  64  78 S20G25    29.87F
APPLETON       MOCLDY    75  66  73 S7        29.84F
BENSON         MOCLDY    73  64  73 SW16G23   29.85F
ORTONVILLE     PTCLDY    73  64  73 S8        29.82F
MADISON        PTCLDY    79  66  65 S20G28    29.84F
WILLMAR        FAIR      73  61  64 S7        29.90F
$$
MNZ033>034-036-042>043-049>051-058-059-110900-
   Central Minnesota

CITY           SKY/WX    TMP DP  RH WIND       PRES   REMARKS
ST CLOUD       CLOUDY    74  59  59 S22G28    29.91F
SAUK CENTRE    CLOUDY    71  62  73 S18G28    29.86F
PAYNESVILLE    RAIN      69  58  68 SE15G23   29.90F
AITKIN         TSTM      68  63  83 E5        29.93F VSB 3/4
PINE RIVER     CLOUDY    66  66 100 SE9       29.93S
BRAINERD       LGT RAIN  71  64  78 SE3       29.92F
STAPLES        CLOUDY    63  61  94 SE13G18   29.89F
LONG PRAIRIE   CLOUDY    66  63  88 SE9       29.86F
LITTLE FALLS   LGT RAIN  68  61  77 S9G21     29.89F
LITCHFIELD     PTCLDY    73  61  64 S9        29.92F
BUFFALO        CLOUDY    72  59  62 S9G21     29.95F
MAPLE LAKE     CLOUDY    72  62  69 S8        29.94F
$$
MNZ037-044-045-052-053-110900-
   East Central Minnesota

CITY           SKY/WX    TMP DP  RH WIND       PRES   REMARKS
PRINCETON      CLOUDY    73  61  64 S13G20    29.93F
MORA           RAIN      64  59  82 S7        29.96F
CAMBRIDGE      CLOUDY    75  61  60 S13G20    29.93F
RUSH CITY      CLOUDY    71  60  68 S7        29.96F
MOOSE LAKE     RAIN      63  61  94 NE3       29.96S
HINCKLEY       CLOUDY    68  63  83 SE5       29.96F
CLOQUET        CLOUDY    57  55  94 E3        29.98F
MCGREGOR       CLOUDY    64  63  94 SE8       29.95F
$$
MNZ071>073-080-081-089-090-097-098-110900-
   Southwest Minnesota

CITY           SKY/WX    TMP DP  RH WIND       PRES   REMARKS
MONTEVIDEO     CLOUDY    73  66  78 SW12G21   29.88F
GRANITE FALLS  RAIN      73  64  74 S14       29.91F
CANBY          MOCLDY    73  66  78 S16G25    29.86F
MARSHALL       CLOUDY    73  64  73 SW33G40   29.88F
REDWOOD FALLS  LGT RAIN  72  62  71 S20G25    29.93S
OLIVIA         CLOUDY    73  61  64 S13G18    29.91F
PIPESTONE      CLOUDY    70  66  88 S21G30    29.95S
WINDOM         CLOUDY    70  61  73 S16G24    29.98F
WORTHINGTON    CLOUDY    68  64  88 S12G20    30.02R THUNDER
JACKSON        CLOUDY    70  59  68 S18G25    30.00F
TRACY          CLOUDY    71  65  83 S18       29.93F
SLAYTON        RAIN      67  65  93 S20G25    29.98S
$$
MNZ065>067-074>077-082>085-091>093-110900-
   South Central Minnesota

CITY           SKY/WX    TMP DP  RH WIND       PRES   REMARKS
MANKATO        CLOUDY    70  57  64 S12G17    30.00F
NEW ULM        MOCLDY    72  61  68 S15G22    29.95F
ST JAMES       CLOUDY    72  61  68 S13       30.00S
FAIRMONT       CLOUDY    70  57  64 S13       30.02R
GLENCOE        MOCLDY    72  58  62 S8        29.95F
FARIBAULT      CLOUDY    72  57  60 S9G16     30.02S
OWATONNA       CLOUDY    68  61  77 S10G17    30.04F
WASECA         RAIN      70  55  60 S13       30.05S
ALBERT LEA     CLOUDY    68  59  73 S12       30.05S
$$
MNZ078>079-086>088-094>096-110900-
   Southeast Minnesota

CITY           SKY/WX    TMP DP  RH WIND       PRES   REMARKS
ROCHESTER      CLOUDY    68  58  70 S13       30.08F
RED WING       CLOUDY    72  57  60 S7G18     30.02S
STANTON        CLOUDY    69  60  71 S10       30.00F
DODGE CENTER   CLOUDY    70  57  64 S20       30.04F
WINONA         MOCLDY    72  59  64 SW3       30.07S
AUSTIN         CLOUDY    70  55  60 S9        30.07S
PRESTON        CLOUDY    67  59  77 S7        30.10S
$$
ABBREVIATIONS USED IN REMARKS
   TC - TEMPERATURES IN CELSIUS
  WCI - WIND CHILL INDEX
   HX - HEAT INDEX
  VSB - VISIBILITY
$$


USA.gov is the U.S. government's official web portal to all federal, state and local government web resources and services.